Terminal Aerodrome Forecast
Issued by NWS

Home | Current Version | Previous Version | Graphics & Text | Print | Product List | Glossary On
Versions: 1 2 3 4 5 6 7 8 9 10 11 12 13 14 15 16 17 18 19 20 21
000
FTUS43 KOAX 251521 AAA
TAFCDR
TAF AMD
KCDR 251521Z 2515/2612 34011KT P6SM OVC035
      TEMPO 2515/2518 3SM -SNRA OVC012
     FM251800 36014G24KT P6SM VCSH SCT020 BKN030
     FM260400 01011KT P6SM OVC050=

USA.gov is the U.S. government's official web portal to all federal, state and local government web resources and services.